Regional Weather Roundup
Issued by NWS

Home | Current Version | Previous Version | Graphics & Text | Print | Product List | Glossary On
Versions: 1 2 3 4 5 6 7 8 9 10 11 12 13 14 15 16 17 18 19 20 21 22 23 24 25 26 27 28 29 30 31 32 33 34 35 36 37 38 39 40 41 42 43 44 45 46 47 48 49 50
000
ASUS45 KBOI 061710
RWRID

IDAHO REGIONAL WEATHER ROUNDUP
NATIONAL WEATHER SERVICE BOISE ID
1000 AM MST SAT FEB 06 2016

NOTE: "FAIR" INDICATES FEW OR NO CLOUDS BELOW 12000 FEET
WITH NO SIGNIFICANT WEATHER AND/OR OBSTRUCTIONS TO VISIBILITY

IDZ012-014-061800-
SOUTHWEST IDAHO


CITY           SKY/WX    TMP DP  RH WIND       PRES   REMARKS
BOISE          CLOUDY    38  29  70 SE6       30.43R WCI  33
CALDWELL       CLOUDY    35  26  69 SE5       30.47R WCI  31
MOUNTAIN HOME  CLOUDY    32  32 100 E17       30.44R WCI  21
$$

IDZ016-017-061800-
SOUTHCENTRAL IDAHO


CITY           SKY/WX    TMP DP  RH WIND       PRES   REMARKS
BURLEY         CLOUDY    35  25  66 NE3       30.43R
JEROME         CLOUDY    24  19  81 NE14      30.43S WCI  12
TWIN FALLS     CLOUDY    31  26  82 NE7       30.43R WCI  24
$$

IDZ019>023-061800-
SOUTHEAST IDAHO


CITY           SKY/WX    TMP DP  RH WIND       PRES   REMARKS
IDAHO FALLS    CLOUDY    16  12  84 CALM      30.44R
POCATELLO      CLOUDY    20  17  88 CALM      30.45R
REXBURG        CLOUDY    21  19  92 CALM      30.43R
$$

IDZ006-010-011-018-031-032-061800-
CENTRAL IDAHO MOUNTAINS


CITY           SKY/WX    TMP DP  RH WIND       PRES   REMARKS
MCCALL         PTSUNNY   28  22  78 E3        30.35R
HAILEY         MOSUNNY   21  16  79 NW8       30.42S WCI  12
STANLEY          N/A     28  20  71 VRB5      30.35R WCI  23
SALMON         CLOUDY    16  12  86 CALM      30.32R
CHALLIS        CLOUDY    18  13  80 E3        30.29S
$$

IDZ002-004-006-007-026-061800-
NORTHERN IDAHO


CITY           SKY/WX    TMP DP  RH WIND       PRES   REMARKS
LEWISTON       CLOUDY    46  27  47 SW8       30.39R
LOWELL           N/A     37  35  92 CALM      30.44R
COEUR D`ALENE  CLOUDY    36  30  80 SW15      30.28R WCI  26
MULLAN PASS    CLOUDY    23  20  88 W9G20     30.18R WCI  13
$$



USA.gov is the U.S. government's official web portal to all federal, state and local government web resources and services.